| time (UTC) | temp F | wind direction | speed MPH | gust MPH | rain 1hr in | rain 24hr in | rain mn in | humidity % | barometer mb |
| 20260506221532 | 71 | 194 | 2.0 | 3.0 | 0.00 | 0.00 | 0.00 | 72 | 1007.4 |
| 20260506221030 | 71 | 226 | 2.0 | 2.0 | 0.00 | 0.00 | 0.00 | 72 | 1007.1 |
| 20260506220526 | 70 | 285 | 2.0 | 2.0 | 0.00 | 0.00 | 0.00 | 73 | 1007.2 |
| 20260506220021 | 71 | 196 | 3.0 | 6.0 | 0.00 | 0.00 | 0.00 | 72 | 1007.2 |
| 20260506215519 | 70 | 252 | 3.0 | 6.0 | 0.00 | 0.00 | 0.00 | 72 | 1007.1 |
| 20260506215014 | 71 | 210 | 2.0 | 2.0 | 0.00 | 0.00 | 0.00 | 72 | 1007.0 |
| 20260506214511 | 70 | 189 | 3.0 | 5.0 | 0.00 | 0.00 | 0.00 | 72 | 1006.8 |
| 20260506214008 | 70 | 211 | 5.0 | 7.0 | 0.00 | 0.00 | 0.00 | 72 | 1006.9 |
| 20260506213507 | 70 | 185 | 3.0 | 3.0 | 0.00 | 0.00 | 0.00 | 73 | 1006.9 |
| 20260506213003 | 70 | 215 | 2.0 | 3.0 | 0.00 | 0.00 | 0.00 | 74 | 1006.9 |
| 20260506212459 | 70 | 213 | 3.0 | 3.0 | 0.00 | 0.00 | 0.00 | 73 | 1006.8 |
| 20260506211954 | 69 | 232 | 1.0 | 2.0 | 0.00 | 0.00 | 0.00 | 75 | 1006.8 |
| 20260506211451 | 69 | 258 | 4.0 | 6.0 | 0.00 | 0.00 | 0.00 | 75 | 1006.9 |
| 20260506210948 | 69 | 187 | 1.0 | 1.0 | 0.00 | 0.00 | 0.00 | 75 | 1006.7 |
| 20260506210444 | 69 | 229 | 2.0 | 2.0 | 0.00 | 0.00 | 0.00 | 75 | 1006.7 |
| 20260506205942 | 70 | 238 | 1.0 | 1.0 | 0.00 | 0.00 | 0.00 | 75 | 1006.4 |
| 20260506205438 | 69 | 187 | 5.0 | 7.0 | 0.00 | 0.00 | 0.00 | 75 | 1006.7 |
| 20260506204934 | 69 | 220 | 2.0 | 2.0 | 0.00 | 0.00 | 0.00 | 76 | 1006.8 |
| 20260506204432 | 69 | 143 | 4.0 | 5.0 | 0.00 | 0.00 | 0.00 | 76 | 1006.7 |
| 20260506203929 | 69 | 235 | 3.0 | 6.0 | 0.00 | 0.00 | 0.00 | 77 | 1006.5 |
| 20260506203426 | 68 | 131 | 2.0 | 2.0 | 0.00 | 0.00 | 0.00 | 78 | 1006.6 |
| 20260506202923 | 68 | 271 | 2.0 | 3.0 | 0.00 | 0.00 | 0.00 | 78 | 1006.5 |
| 20260506202420 | 68 | 222 | 6.0 | 11.0 | 0.00 | 0.00 | 0.00 | 77 | 1006.5 |
| 20260506201916 | 68 | 161 | 5.0 | 6.0 | 0.00 | 0.00 | 0.00 | 78 | 1006.8 |
| 20260506201414 | 68 | 236 | 4.0 | 5.0 | 0.00 | 0.00 | 0.00 | 78 | 1007.0 |
| 20260506200910 | 68 | 243 | 2.0 | 2.0 | 0.00 | 0.00 | 0.00 | 77 | 1006.6 |
| 20260506200406 | 68 | 194 | 1.0 | 2.0 | 0.00 | 0.00 | 0.00 | 77 | 1007.0 |
| 20260506195903 | 68 | 167 | 3.0 | 3.0 | 0.00 | 0.00 | 0.00 | 77 | 1007.1 |
| 20260506195400 | 68 | 218 | 4.0 | 7.0 | 0.00 | 0.00 | 0.00 | 77 | 1007.1 |
| 20260506194857 | 68 | 206 | 1.0 | 2.0 | 0.00 | 0.00 | 0.00 | 78 | 1007.0 |
| 20260506194354 | 67 | 285 | 3.0 | 6.0 | 0.00 | 0.00 | 0.00 | 78 | 1007.1 |
| 20260506193851 | 67 | 213 | 4.0 | 7.0 | 0.00 | 0.00 | 0.00 | 78 | 1007.2 |
| 20260506193348 | 68 | 214 | 3.0 | 5.0 | 0.00 | 0.00 | 0.00 | 77 | 1007.2 |
| 20260506192844 | 67 | 232 | 3.0 | 3.0 | 0.00 | 0.00 | 0.00 | 78 | 1007.4 |
| 20260506192341 | 67 | 159 | 2.0 | 2.0 | 0.00 | 0.00 | 0.00 | 78 | 1007.2 |
| 20260506191838 | 67 | 259 | 4.0 | 6.0 | 0.00 | 0.00 | 0.00 | 79 | 1007.3 |
| 20260506191334 | 67 | 197 | 2.0 | 2.0 | 0.00 | 0.00 | 0.00 | 80 | 1007.5 |
| 20260506190832 | 66 | 205 | 4.0 | 6.0 | 0.00 | 0.00 | 0.00 | 80 | 1007.5 |
| 20260506190328 | 66 | 246 | 3.0 | 3.0 | 0.00 | 0.00 | 0.00 | 82 | 1007.4 |
| 20260506185825 | 67 | 179 | 9.0 | 14.0 | 0.00 | 0.00 | 0.00 | 81 | 1007.6 |
| 20260506185322 | 67 | 183 | 7.0 | 10.0 | 0.00 | 0.00 | 0.00 | 78 | 1007.5 |
| 20260506184819 | 67 | 200 | 3.0 | 3.0 | 0.00 | 0.00 | 0.00 | 78 | 1007.7 |
| 20260506184316 | 67 | 257 | 3.0 | 3.0 | 0.00 | 0.00 | 0.00 | 78 | 1007.5 |
| 20260506183813 | 67 | 217 | 3.0 | 5.0 | 0.00 | 0.00 | 0.00 | 79 | 1007.4 |
| 20260506183308 | 69 | 265 | 4.0 | 5.0 | 0.00 | 0.00 | 0.00 | 75 | 1007.4 |
| 20260506182806 | 69 | 243 | 2.0 | 3.0 | 0.00 | 0.00 | 0.00 | 72 | 1007.6 |
| 20260506182306 | 69 | 200 | 3.0 | 5.0 | 0.00 | 0.00 | 0.00 | 72 | 1007.8 |
| 20260506181800 | 70 | 229 | 4.0 | 6.0 | 0.00 | 0.00 | 0.00 | 71 | 1007.6 |
| 20260506181258 | 70 | 212 | 4.0 | 5.0 | 0.00 | 0.00 | 0.00 | 71 | 1007.6 |
| 20260506180755 | 69 | 214 | 5.0 | 8.0 | 0.00 | 0.00 | 0.00 | 72 | 1008.0 |
| 20260506180251 | 69 | 185 | 5.0 | 7.0 | 0.00 | 0.00 | 0.00 | 74 | 1007.8 |
| 20260506175747 | 69 | 194 | 4.0 | 5.0 | 0.00 | 0.00 | 0.00 | 76 | 1007.8 |
| 20260506175244 | 68 | 197 | 1.0 | 2.0 | 0.00 | 0.00 | 0.00 | 78 | 1008.0 |
| 20260506174742 | 68 | 130 | 3.0 | 6.0 | 0.00 | 0.00 | 0.00 | 77 | 1008.1 |
| 20260506174239 | 68 | 191 | 4.0 | 6.0 | 0.00 | 0.00 | 0.00 | 78 | 1008.1 |
| 20260506173737 | 68 | 175 | 7.0 | 8.0 | 0.00 | 0.00 | 0.00 | 78 | 1008.1 |
| 20260506173233 | 68 | 141 | 4.0 | 6.0 | 0.00 | 0.00 | 0.00 | 78 | 1008.1 |
| 20260506172730 | 68 | 189 | 3.0 | 3.0 | 0.00 | 0.00 | 0.00 | 80 | 1008.2 |
| 20260506172226 | 68 | 119 | 5.0 | 8.0 | 0.00 | 0.00 | 0.00 | 80 | 1008.0 |
| 20260506171724 | 67 | 184 | 5.0 | 7.0 | 0.00 | 0.00 | 0.00 | 81 | 1008.4 |
| 20260506171221 | 67 | 184 | 4.0 | 6.0 | 0.00 | 0.00 | 0.00 | 81 | 1008.2 |
| 20260506170719 | 68 | 134 | 4.0 | 8.0 | 0.00 | 0.00 | 0.00 | 76 | 1008.4 |
| 20260506170215 | 69 | 185 | 2.0 | 2.0 | 0.00 | 0.00 | 0.00 | 75 | 1008.5 |
| 20260506165714 | 68 | 238 | 4.0 | 6.0 | 0.00 | 0.00 | 0.00 | 74 | 1008.5 |
| 20260506165210 | 69 | 176 | 7.0 | 8.0 | 0.00 | 0.00 | 0.00 | 73 | 1008.8 |
| 20260506164708 | 69 | 179 | 7.0 | 11.0 | 0.00 | 0.00 | 0.00 | 73 | 1008.9 |
| 20260506164205 | 68 | 198 | 4.0 | 7.0 | 0.00 | 0.00 | 0.00 | 76 | 1009.0 |
| 20260506163701 | 68 | 202 | 3.0 | 3.0 | 0.00 | 0.00 | 0.00 | 78 | 1009.3 |
| 20260506163156 | 68 | 181 | 6.0 | 8.0 | 0.00 | 0.00 | 0.00 | 76 | 1009.5 |
| 20260506162652 | 68 | 176 | 4.0 | 6.0 | 0.00 | 0.00 | 0.00 | 76 | 1009.3 |
| 20260506162150 | 67 | 179 | 8.0 | 9.0 | 0.00 | 0.00 | 0.00 | 77 | 1009.4 |
| 20260506161647 | 68 | 178 | 3.0 | 5.0 | 0.00 | 0.00 | 0.00 | 76 | 1009.5 |
| 20260506161144 | 68 | 193 | 4.0 | 5.0 | 0.00 | 0.00 | 0.00 | 76 | 1009.6 |
| 20260506160641 | 68 | 154 | 5.0 | 7.0 | 0.00 | 0.00 | 0.00 | 76 | 1009.2 |
| 20260506160138 | 68 | 172 | 3.0 | 3.0 | 0.00 | 0.00 | 0.00 | 74 | 1009.3 |
| 20260506155637 | 69 | 187 | 4.0 | 6.0 | 0.00 | 0.00 | 0.00 | 74 | 1009.7 |
| 20260506155134 | 72 | 210 | 6.0 | 7.0 | 0.00 | 0.00 | 0.00 | 66 | 1009.5 |
| 20260506153236 | 72 | 185 | 10.0 | 13.0 | 0.00 | 0.00 | 0.00 | 64 | 1009.4 |
| 20260506152732 | 71 | 116 | 2.0 | 3.0 | 0.00 | 0.00 | 0.00 | 66 | 1009.5 |
| 20260506152230 | 70 | 175 | 3.0 | 5.0 | 0.00 | 0.00 | 0.00 | 67 | 1009.5 |
| 20260506151729 | 70 | 211 | 8.0 | 9.0 | 0.00 | 0.00 | 0.00 | 67 | 1009.5 |
| 20260506151225 | 71 | 180 | 3.0 | 6.0 | 0.00 | 0.00 | 0.00 | 66 | 1009.6 |
| 20260506150721 | 71 | 200 | 2.0 | 2.0 | 0.00 | 0.00 | 0.00 | 66 | 1009.7 |
| 20260506150219 | 71 | 151 | 5.0 | 6.0 | 0.00 | 0.00 | 0.00 | 65 | 1009.7 |
| 20260506145716 | 72 | 214 | 4.0 | 6.0 | 0.00 | 0.00 | 0.00 | 63 | 1009.4 |
| 20260506145212 | 73 | 239 | 3.0 | 3.0 | 0.00 | 0.00 | 0.00 | 61 | 1009.4 |
| 20260506144710 | 73 | 186 | 10.0 | 20.0 | 0.00 | 0.00 | 0.00 | 59 | 1009.5 |
| 20260506144206 | 73 | 239 | 2.0 | 3.0 | 0.00 | 0.00 | 0.00 | 59 | 1009.5 |
| 20260506143704 | 74 | 194 | 5.0 | 10.0 | 0.00 | 0.00 | 0.00 | 59 | 1009.5 |
| 20260506143202 | 73 | 125 | 4.0 | 6.0 | 0.00 | 0.00 | 0.00 | 60 | 1009.8 |
| 20260506142700 | 73 | 220 | 2.0 | 3.0 | 0.00 | 0.00 | 0.00 | 59 | 1009.7 |
| 20260506142157 | 73 | 205 | 4.0 | 6.0 | 0.00 | 0.00 | 0.00 | 61 | 1009.5 |
| 20260506141655 | 72 | 203 | 8.0 | 9.0 | 0.00 | 0.00 | 0.00 | 61 | 1009.7 |
| 20260506141153 | 72 | 183 | 7.0 | 11.0 | 0.00 | 0.00 | 0.00 | 62 | 1009.8 |
| 20260506140651 | 73 | 212 | 4.0 | 5.0 | 0.00 | 0.00 | 0.00 | 62 | 1009.7 |
| 20260506140147 | 73 | 217 | 2.0 | 2.0 | 0.00 | 0.00 | 0.00 | 62 | 1009.6 |
| 20260506135644 | 73 | 165 | 4.0 | 5.0 | 0.00 | 0.00 | 0.00 | 62 | 1009.4 |
| 20260506135141 | 73 | 262 | 5.0 | 8.0 | 0.00 | 0.00 | 0.00 | 61 | 1009.7 |
| 20260506134637 | 72 | 197 | 3.0 | 6.0 | 0.00 | 0.00 | 0.00 | 63 | 1009.9 |
| 20260506134133 | 72 | 187 | 11.0 | 11.0 | 0.00 | 0.00 | 0.00 | 63 | 1009.9 |
| 20260506133631 | 72 | 181 | 7.0 | 9.0 | 0.00 | 0.00 | 0.00 | 63 | 1010.1 |
| 20260506133127 | 71 | 223 | 5.0 | 6.0 | 0.00 | 0.00 | 0.00 | 65 | 1010.2 |
| 20260506132625 | 72 | 205 | 5.0 | 6.0 | 0.00 | 0.00 | 0.00 | 64 | 1009.9 |
| 20260506132122 | 71 | 291 | 11.0 | 15.0 | 0.00 | 0.00 | 0.00 | 65 | 1010.3 |
| 20260506131619 | 71 | 271 | 5.0 | 7.0 | 0.00 | 0.00 | 0.00 | 65 | 1010.4 |
| 20260506131115 | 71 | 224 | 4.0 | 5.0 | 0.00 | 0.00 | 0.00 | 67 | 1010.4 |
| 20260506130612 | 70 | 190 | 6.0 | 8.0 | 0.00 | 0.00 | 0.00 | 67 | 1010.1 |
| 20260506130110 | 70 | 69 | 1.0 | 2.0 | 0.00 | 0.00 | 0.00 | 68 | 1010.2 |
| 20260506125608 | 69 | 259 | 2.0 | 2.0 | 0.00 | 0.00 | 0.00 | 70 | 1010.1 |
| 20260506125105 | 68 | 202 | 3.0 | 3.0 | 0.00 | 0.00 | 0.00 | 70 | 1010.2 |
| 20260506124603 | 68 | 190 | 6.0 | 13.0 | 0.00 | 0.00 | 0.00 | 71 | 1010.0 |
| 20260506124100 | 66 | 184 | 7.0 | 9.0 | 0.00 | 0.00 | 0.00 | 74 | 1010.3 |
| 20260506123558 | 66 | 232 | 1.0 | 2.0 | 0.00 | 0.00 | 0.00 | 75 | 1010.2 |
| 20260506123056 | 66 | 194 | 2.0 | 2.0 | 0.00 | 0.00 | 0.00 | 75 | 1010.0 |
| 20260506122552 | 66 | 204 | 2.0 | 2.0 | 0.00 | 0.00 | 0.00 | 75 | 1010.2 |
| 20260506122051 | 66 | 265 | 4.0 | 6.0 | 0.00 | 0.00 | 0.00 | 74 | 1010.2 |
| 20260506121548 | 65 | 271 | 5.0 | 7.0 | 0.00 | 0.00 | 0.00 | 76 | 1010.4 |
| 20260506121044 | 65 | 211 | 0.0 | 2.0 | 0.00 | 0.00 | 0.00 | 77 | 1010.1 |
| 20260506120542 | 65 | 209 | 3.0 | 3.0 | 0.00 | 0.00 | 0.00 | 77 | 1010.3 |
| 20260506120039 | 65 | 203 | 3.0 | 5.0 | 0.00 | 0.00 | 0.00 | 77 | 1010.3 |
| 20260506115537 | 65 | 149 | 3.0 | 6.0 | 0.00 | 0.00 | 0.00 | 77 | 1010.4 |
| 20260506115036 | 65 | 213 | 5.0 | 6.0 | 0.00 | 0.00 | 0.00 | 76 | 1010.2 |
| 20260506114532 | 65 | 205 | 4.0 | 5.0 | 0.00 | 0.00 | 0.00 | 77 | 1010.4 |
| 20260506114031 | 64 | 190 | 5.0 | 7.0 | 0.00 | 0.00 | 0.00 | 78 | 1010.6 |
| 20260506113528 | 63 | 182 | 3.0 | 3.0 | 0.00 | 0.00 | 0.00 | 79 | 1010.5 |
| 20260506113026 | 63 | 207 | 4.0 | 5.0 | 0.00 | 0.00 | 0.00 | 80 | 1010.7 |
| 20260506112522 | 62 | 192 | 6.0 | 9.0 | 0.00 | 0.00 | 0.00 | 81 | 1010.5 |
| 20260506112019 | 62 | 176 | 5.0 | 7.0 | 0.00 | 0.00 | 0.00 | 81 | 1010.6 |
| 20260506111517 | 62 | 212 | 2.0 | 2.0 | 0.00 | 0.00 | 0.00 | 81 | 1010.5 |
| 20260506111014 | 62 | 167 | 6.0 | 11.0 | 0.00 | 0.00 | 0.00 | 81 | 1010.5 |
| 20260506110512 | 62 | 233 | 3.0 | 5.0 | 0.00 | 0.00 | 0.00 | 81 | 1010.3 |
| 20260506110009 | 62 | 189 | 5.0 | 8.0 | 0.00 | 0.00 | 0.00 | 82 | 1010.5 |
| 20260506105505 | 62 | 188 | 5.0 | 7.0 | 0.00 | 0.00 | 0.00 | 83 | 1010.5 |
| 20260506105002 | 61 | 145 | 8.0 | 10.0 | 0.00 | 0.00 | 0.00 | 83 | 1010.3 |
| 20260506104500 | 61 | 184 | 3.0 | 5.0 | 0.00 | 0.00 | 0.00 | 84 | 1010.3 |
| 20260506103958 | 61 | 195 | 2.0 | 6.0 | 0.00 | 0.00 | 0.00 | 84 | 1010.5 |
| 20260506103455 | 61 | 171 | 5.0 | 8.0 | 0.00 | 0.00 | 0.00 | 85 | 1010.6 |
| 20260506102951 | 61 | 183 | 5.0 | 6.0 | 0.00 | 0.00 | 0.00 | 85 | 1010.4 |
| 20260506102450 | 61 | 197 | 3.0 | 5.0 | 0.00 | 0.00 | 0.00 | 85 | 1010.2 |
| 20260506101947 | 60 | 221 | 4.0 | 6.0 | 0.00 | 0.00 | 0.00 | 85 | 1010.2 |
| 20260506101443 | 61 | 225 | 5.0 | 6.0 | 0.00 | 0.00 | 0.00 | 85 | 1010.1 |
| 20260506100941 | 61 | 198 | 2.0 | 3.0 | 0.00 | 0.00 | 0.00 | 85 | 1010.0 |
| 20260506100439 | 61 | 191 | 3.0 | 3.0 | 0.00 | 0.00 | 0.00 | 85 | 1010.3 |
| 20260506095936 | 61 | 203 | 4.0 | 8.0 | 0.00 | 0.00 | 0.00 | 86 | 1010.3 |
| 20260506095435 | 61 | 170 | 4.0 | 5.0 | 0.00 | 0.00 | 0.00 | 85 | 1010.1 |
| 20260506094931 | 61 | 183 | 3.0 | 3.0 | 0.00 | 0.00 | 0.00 | 85 | 1010.1 |
| 20260506094430 | 61 | 224 | 8.0 | 9.0 | 0.00 | 0.00 | 0.00 | 85 | 1010.0 |
| 20260506093927 | 61 | 199 | 2.0 | 3.0 | 0.00 | 0.00 | 0.00 | 85 | 1010.0 |
| 20260506093424 | 61 | 202 | 6.0 | 7.0 | 0.00 | 0.00 | 0.00 | 86 | 1010.0 |
| 20260506092922 | 61 | 203 | 5.0 | 6.0 | 0.00 | 0.00 | 0.00 | 85 | 1010.2 |
| 20260506092420 | 61 | 181 | 4.0 | 5.0 | 0.00 | 0.00 | 0.00 | 86 | 1010.3 |
| 20260506091916 | 61 | 181 | 1.0 | 1.0 | 0.00 | 0.00 | 0.00 | 86 | 1010.4 |
| 20260506091414 | 61 | 237 | 5.0 | 6.0 | 0.00 | 0.00 | 0.00 | 86 | 1010.5 |
| 20260506090911 | 61 | 157 | 2.0 | 2.0 | 0.00 | 0.00 | 0.00 | 85 | 1010.4 |
| 20260506090409 | 61 | 178 | 3.0 | 6.0 | 0.00 | 0.00 | 0.00 | 85 | 1010.6 |
| 20260506085905 | 61 | 190 | 5.0 | 7.0 | 0.00 | 0.00 | 0.00 | 86 | 1010.4 |
| 20260506085402 | 61 | 165 | 5.0 | 7.0 | 0.00 | 0.00 | 0.00 | 85 | 1010.4 |
| 20260506084858 | 61 | 205 | 4.0 | 5.0 | 0.00 | 0.00 | 0.00 | 85 | 1010.4 |
| 20260506084355 | 61 | 221 | 3.0 | 3.0 | 0.00 | 0.00 | 0.00 | 85 | 1010.6 |
| 20260506083851 | 61 | 156 | 1.0 | 2.0 | 0.00 | 0.00 | 0.00 | 85 | 1010.6 |
| 20260506083349 | 61 | 210 | 2.0 | 2.0 | 0.00 | 0.00 | 0.00 | 85 | 1010.5 |
| 20260506082846 | 61 | 211 | 3.0 | 3.0 | 0.00 | 0.00 | 0.00 | 85 | 1010.5 |
| 20260506082343 | 61 | 185 | 6.0 | 7.0 | 0.00 | 0.00 | 0.00 | 85 | 1010.3 |
| 20260506081839 | 61 | 176 | 1.0 | 2.0 | 0.00 | 0.00 | 0.00 | 84 | 1010.5 |
| 20260506081337 | 61 | 206 | 5.0 | 6.0 | 0.00 | 0.00 | 0.00 | 84 | 1010.6 |
| 20260506080835 | 61 | 177 | 5.0 | 7.0 | 0.00 | 0.00 | 0.00 | 84 | 1010.6 |
| 20260506080331 | 61 | 81 | 2.0 | 3.0 | 0.00 | 0.00 | 0.00 | 84 | 1010.5 |
| 20260506073315 | 62 | 177 | 3.0 | 3.0 | 0.00 | 0.00 | 0.00 | 84 | 1010.5 |
| 20260506072812 | 62 | 214 | 7.0 | 8.0 | 0.00 | 0.00 | 0.00 | 83 | 1010.7 |
| 20260506072309 | 62 | 183 | 5.0 | 6.0 | 0.00 | 0.00 | 0.00 | 83 | 1010.7 |
| 20260506071807 | 62 | 193 | 2.0 | 2.0 | 0.00 | 0.00 | 0.00 | 83 | 1011.1 |
| 20260506071305 | 62 | 177 | 3.0 | 6.0 | 0.00 | 0.00 | 0.00 | 82 | 1010.7 |
| 20260506070802 | 62 | 284 | 7.0 | 9.0 | 0.00 | 0.00 | 0.00 | 82 | 1010.9 |
| 20260506070259 | 62 | 184 | 4.0 | 6.0 | 0.00 | 0.00 | 0.00 | 82 | 1010.7 |
| 20260506062236 | 63 | 180 | 2.0 | 3.0 | 0.00 | 0.00 | 0.00 | 81 | 1010.7 |
| 20260506061731 | 63 | 210 | 4.0 | 6.0 | 0.00 | 0.00 | 0.00 | 81 | 1010.8 |
| 20260506061229 | 63 | 201 | 1.0 | 2.0 | 0.00 | 0.00 | 0.00 | 81 | 1010.6 |
| 20260506060728 | 63 | 192 | 5.0 | 6.0 | 0.00 | 0.00 | 0.00 | 81 | 1010.5 |
| 20260506060224 | 62 | 196 | 4.0 | 5.0 | 0.00 | 0.00 | 0.00 | 81 | 1010.9 |
| 20260506051156 | 63 | 204 | 4.0 | 5.0 | 0.00 | 0.00 | 0.00 | 80 | 1011.1 |
| 20260506050655 | 63 | 217 | 2.0 | 3.0 | 0.00 | 0.00 | 0.00 | 79 | 1011.2 |
| 20260506050151 | 63 | 193 | 3.0 | 3.0 | 0.00 | 0.00 | 0.00 | 80 | 1011.4 |
| 20260506044642 | 63 | 180 | 7.0 | 10.0 | 0.00 | 0.00 | 0.00 | 79 | 1011.5 |
| 20260506044139 | 63 | 184 | 3.0 | 5.0 | 0.00 | 0.00 | 0.00 | 79 | 1011.2 |
| 20260506043636 | 63 | 223 | 3.0 | 3.0 | 0.00 | 0.00 | 0.00 | 78 | 1011.3 |
| 20260506043134 | 63 | 203 | 5.0 | 8.0 | 0.00 | 0.00 | 0.00 | 78 | 1011.3 |
| 20260506042633 | 64 | 189 | 8.0 | 10.0 | 0.00 | 0.00 | 0.00 | 78 | 1011.5 |
| 20260506042131 | 64 | 165 | 11.0 | 13.0 | 0.00 | 0.00 | 0.00 | 77 | 1011.3 |
| 20260506041629 | 64 | 156 | 2.0 | 3.0 | 0.00 | 0.00 | 0.00 | 77 | 1011.3 |
| 20260506041125 | 64 | 200 | 4.0 | 6.0 | 0.00 | 0.00 | 0.00 | 76 | 1011.2 |
| 20260506040623 | 64 | 210 | 5.0 | 9.0 | 0.00 | 0.00 | 0.00 | 76 | 1011.2 |
| 20260506040120 | 64 | 211 | 2.0 | 3.0 | 0.00 | 0.00 | 0.00 | 76 | 1011.3 |
| 20260506035617 | 65 | 282 | 6.0 | 9.0 | 0.00 | 0.00 | 0.00 | 75 | 1011.3 |
| 20260506035113 | 65 | 192 | 6.0 | 7.0 | 0.00 | 0.00 | 0.00 | 75 | 1011.2 |
| 20260506034611 | 65 | 196 | 8.0 | 14.0 | 0.00 | 0.00 | 0.00 | 75 | 1011.3 |
| 20260506034108 | 65 | 212 | 7.0 | 8.0 | 0.00 | 0.00 | 0.00 | 74 | 1011.3 |
| 20260506033605 | 65 | 229 | 4.0 | 6.0 | 0.00 | 0.00 | 0.00 | 74 | 1011.2 |
| 20260506033101 | 65 | 181 | 4.0 | 6.0 | 0.00 | 0.00 | 0.00 | 74 | 1011.2 |
| 20260506032559 | 65 | 194 | 3.0 | 5.0 | 0.00 | 0.00 | 0.00 | 74 | 1011.1 |
| 20260506032056 | 65 | 216 | 3.0 | 6.0 | 0.00 | 0.00 | 0.00 | 74 | 1011.3 |
| 20260506031553 | 65 | 242 | 3.0 | 5.0 | 0.00 | 0.00 | 0.00 | 73 | 1011.2 |
| 20260506031050 | 65 | 206 | 6.0 | 8.0 | 0.00 | 0.00 | 0.00 | 73 | 1011.2 |
| 20260506030548 | 66 | 262 | 4.0 | 6.0 | 0.00 | 0.00 | 0.00 | 73 | 1011.2 |
| 20260506030045 | 66 | 189 | 7.0 | 9.0 | 0.00 | 0.00 | 0.00 | 73 | 1011.3 |
| 20260506025542 | 66 | 202 | 4.0 | 6.0 | 0.00 | 0.00 | 0.00 | 73 | 1011.3 |
| 20260506025038 | 66 | 173 | 4.0 | 7.0 | 0.00 | 0.00 | 0.00 | 72 | 1011.2 |
| 20260506024535 | 66 | 222 | 7.0 | 8.0 | 0.00 | 0.00 | 0.00 | 72 | 1011.1 |
| 20260506024031 | 66 | 192 | 7.0 | 9.0 | 0.00 | 0.00 | 0.00 | 71 | 1011.4 |
| 20260506023527 | 66 | 237 | 8.0 | 11.0 | 0.00 | 0.00 | 0.00 | 71 | 1011.3 |
| 20260506023025 | 66 | 161 | 6.0 | 10.0 | 0.00 | 0.00 | 0.00 | 71 | 1011.4 |
| 20260506022523 | 67 | 231 | 6.0 | 10.0 | 0.00 | 0.00 | 0.00 | 71 | 1011.4 |
| 20260506022020 | 66 | 223 | 11.0 | 14.0 | 0.00 | 0.00 | 0.00 | 71 | 1011.3 |
| 20260506021517 | 66 | 246 | 5.0 | 11.0 | 0.00 | 0.00 | 0.00 | 71 | 1011.7 |
| 20260506021015 | 66 | 219 | 6.0 | 10.0 | 0.00 | 0.00 | 0.00 | 71 | 1011.4 |
| 20260506020512 | 67 | 190 | 2.0 | 3.0 | 0.00 | 0.00 | 0.00 | 71 | 1011.7 |
| 20260506020010 | 67 | 248 | 4.0 | 5.0 | 0.00 | 0.00 | 0.00 | 71 | 1011.3 |
| 20260506015507 | 67 | 198 | 6.0 | 7.0 | 0.00 | 0.00 | 0.00 | 70 | 1011.5 |
| 20260506015003 | 67 | 197 | 3.0 | 3.0 | 0.00 | 0.00 | 0.00 | 70 | 1011.3 |
| 20260506014501 | 67 | 172 | 4.0 | 5.0 | 0.00 | 0.00 | 0.00 | 70 | 1011.3 |
| 20260506013956 | 67 | 180 | 5.0 | 8.0 | 0.00 | 0.00 | 0.00 | 70 | 1011.6 |
| 20260506013455 | 67 | 68 | 5.0 | 8.0 | 0.00 | 0.00 | 0.00 | 69 | 1011.5 |
| 20260506012950 | 68 | 210 | 7.0 | 10.0 | 0.00 | 0.00 | 0.00 | 69 | 1011.1 |
| 20260506012447 | 68 | 225 | 4.0 | 6.0 | 0.00 | 0.00 | 0.00 | 68 | 1011.3 |
| 20260506011944 | 68 | 152 | 3.0 | 5.0 | 0.00 | 0.00 | 0.00 | 67 | 1011.3 |
| 20260506011442 | 68 | 181 | 9.0 | 10.0 | 0.00 | 0.00 | 0.00 | 66 | 1011.3 |
| 20260506010938 | 68 | 185 | 7.0 | 9.0 | 0.00 | 0.00 | 0.00 | 66 | 1011.0 |
| 20260506010437 | 68 | 266 | 4.0 | 7.0 | 0.00 | 0.00 | 0.00 | 66 | 1011.0 |
| 20260506005933 | 68 | 193 | 6.0 | 7.0 | 0.00 | 0.00 | 0.00 | 65 | 1010.7 |
| 20260506005431 | 68 | 197 | 8.0 | 13.0 | 0.00 | 0.00 | 0.00 | 64 | 1011.0 |
| 20260506004926 | 68 | 190 | 10.0 | 14.0 | 0.00 | 0.00 | 0.00 | 64 | 1010.7 |
| 20260506004424 | 68 | 259 | 10.0 | 16.0 | 0.00 | 0.00 | 0.00 | 64 | 1010.7 |
| 20260506003920 | 68 | 262 | 7.0 | 11.0 | 0.00 | 0.00 | 0.00 | 63 | 1010.7 |
| 20260506003417 | 68 | 184 | 7.0 | 8.0 | 0.00 | 0.00 | 0.00 | 63 | 1010.8 |
| 20260506002913 | 68 | 273 | 6.0 | 8.0 | 0.00 | 0.00 | 0.00 | 62 | 1010.6 |
| 20260506002409 | 68 | 216 | 8.0 | 11.0 | 0.00 | 0.00 | 0.00 | 62 | 1010.7 |
| 20260506001905 | 69 | 197 | 9.0 | 11.0 | 0.00 | 0.00 | 0.00 | 62 | 1010.6 |
| 20260506001402 | 69 | 165 | 8.0 | 17.0 | 0.00 | 0.00 | 0.00 | 62 | 1010.5 |
| 20260506000859 | 69 | 206 | 6.0 | 8.0 | 0.00 | 0.00 | 0.00 | 62 | 1010.6 |
| 20260506000357 | 69 | 292 | 6.0 | 9.0 | 0.00 | 0.00 | 0.00 | 62 | 1010.5 |
| 20260505235853 | 69 | 217 | 6.0 | 7.0 | 0.00 | 0.00 | 0.00 | 61 | 1010.5 |
| 20260505235351 | 70 | 215 | 6.0 | 7.0 | 0.00 | 0.00 | 0.00 | 60 | 1010.4 |
| 20260505234848 | 70 | 189 | 14.0 | 16.0 | 0.00 | 0.00 | 0.00 | 59 | 1010.3 |
| 20260505234346 | 70 | 169 | 9.0 | 10.0 | 0.00 | 0.00 | 0.00 | 59 | 1010.3 |
| 20260505233842 | 70 | 213 | 7.0 | 9.0 | 0.00 | 0.00 | 0.00 | 59 | 1010.2 |
| 20260505233340 | 71 | 188 | 3.0 | 5.0 | 0.00 | 0.00 | 0.00 | 58 | 1010.2 |
| 20260505232837 | 71 | 170 | 4.0 | 7.0 | 0.00 | 0.00 | 0.00 | 58 | 1009.9 |
| 20260505232335 | 71 | 193 | 3.0 | 5.0 | 0.00 | 0.00 | 0.00 | 58 | 1009.8 |
| 20260505231831 | 71 | 198 | 10.0 | 14.0 | 0.00 | 0.00 | 0.00 | 58 | 1010.0 |
| 20260505231329 | 71 | 171 | 7.0 | 9.0 | 0.00 | 0.00 | 0.00 | 57 | 1009.7 |
| 20260505230827 | 72 | 133 | 8.0 | 11.0 | 0.00 | 0.00 | 0.00 | 57 | 1009.8 |
| 20260505230324 | 72 | 197 | 12.0 | 17.0 | 0.00 | 0.00 | 0.00 | 57 | 1010.0 |
| 20260505225820 | 72 | 258 | 3.0 | 3.0 | 0.00 | 0.00 | 0.00 | 56 | 1009.7 |
| 20260505225318 | 72 | 221 | 4.0 | 5.0 | 0.00 | 0.00 | 0.00 | 56 | 1009.7 |
| 20260505224813 | 73 | 273 | 7.0 | 10.0 | 0.00 | 0.00 | 0.00 | 56 | 1009.4 |
| 20260505224311 | 73 | 223 | 8.0 | 10.0 | 0.00 | 0.00 | 0.00 | 54 | 1009.3 |
| 20260505223808 | 74 | 187 | 5.0 | 13.0 | 0.00 | 0.00 | 0.00 | 53 | 1009.5 |
| 20260505223305 | 74 | 182 | 4.0 | 6.0 | 0.00 | 0.00 | 0.00 | 53 | 1009.5 |
| 20260505222800 | 74 | 215 | 9.0 | 15.0 | 0.00 | 0.00 | 0.00 | 53 | 1009.4 |
| 20260505222257 | 74 | 163 | 2.0 | 5.0 | 0.00 | 0.00 | 0.00 | 52 | 1009.5 |